contact:dominique.lefevre@mio.osupytheas.fr, maurice.libes@osupytheas.fr, didier.mallarino@osupytheas.fr
Project:EMSO http://www.emso-fr.org/EMSO-France
Depth: 2436.0 m
Title:EMSO Ligure Ouest : Data MII capteur MICROCAT
DateTime_Computer,Latitude,Longitude,Temperature,Conductivity,Pressure,DateTime_Instrument
DateTime_Computer,Latitude,Longitude,degC,S m-1,dbar,DateTime_Instrument
2021-12-02T00:02:15Z,42.805,6.029,13.3006,4.60041,2470.18,2021-12-02T02:03:42Z
2021-12-02T00:05:18Z,42.805,6.029,13.3004,4.60036,2470.194,2021-12-02T02:06:46Z
2021-12-02T00:08:21Z,42.805,6.029,13.3008,4.60037,2470.194,2021-12-02T02:09:49Z
2021-12-02T00:11:24Z,42.805,6.029,13.3009,4.60038,2470.156,2021-12-02T02:12:52Z
2021-12-02T00:14:28Z,42.805,6.029,13.3006,4.60029,2470.133,2021-12-02T02:15:55Z
2021-12-02T00:17:31Z,42.805,6.029,13.3001,4.60031,2470.171,2021-12-02T02:18:58Z
2021-12-02T00:20:34Z,42.805,6.029,13.3007,4.60051,2470.18,2021-12-02T02:22:01Z
2021-12-02T00:23:37Z,42.805,6.029,13.3019,4.60058,2470.171,2021-12-02T02:25:04Z
2021-12-02T00:26:40Z,42.805,6.029,13.3019,4.60041,2470.194,2021-12-02T02:28:07Z
2021-12-02T00:29:43Z,42.805,6.029,13.3021,4.60055,2470.18,2021-12-02T02:31:11Z
2021-12-02T00:32:46Z,42.805,6.029,13.3012,4.60053,2470.171,2021-12-02T02:34:14Z
2021-12-02T00:35:49Z,42.805,6.029,13.3006,4.60036,2470.18,2021-12-02T02:37:17Z
2021-12-02T00:38:53Z,42.805,6.029,13.3011,4.60057,2470.18,2021-12-02T02:40:20Z
2021-12-02T00:41:56Z,42.805,6.029,13.3005,4.60045,2470.194,2021-12-02T02:43:23Z
2021-12-02T00:44:59Z,42.805,6.029,13.3008,4.60040,2470.194,2021-12-02T02:46:26Z
2021-12-02T00:48:02Z,42.805,6.029,13.3015,4.60053,2470.194,2021-12-02T02:49:29Z
2021-12-02T00:51:05Z,42.805,6.029,13.3013,4.60045,2470.156,2021-12-02T02:52:32Z
2021-12-02T00:54:08Z,42.805,6.029,13.3006,4.60047,2470.18,2021-12-02T02:55:36Z
2021-12-02T00:57:11Z,42.805,6.029,13.3015,4.60044,2470.217,2021-12-02T02:58:39Z
2021-12-02T01:00:14Z,42.805,6.029,13.3016,4.60058,2470.217,2021-12-02T03:01:42Z
2021-12-02T01:03:18Z,42.805,6.029,13.3003,4.60040,2470.203,2021-12-02T03:04:45Z
2021-12-02T01:06:21Z,42.805,6.029,13.3003,4.60033,2470.18,2021-12-02T03:07:48Z
2021-12-02T01:09:24Z,42.805,6.029,13.3000,4.60033,2470.171,2021-12-02T03:10:51Z
2021-12-02T01:12:27Z,42.805,6.029,13.3015,4.60051,2470.171,2021-12-02T03:13:54Z
2021-12-02T01:15:30Z,42.805,6.029,13.3008,4.60038,2470.203,2021-12-02T03:16:57Z
2021-12-02T01:18:33Z,42.805,6.029,13.3008,4.60057,2470.217,2021-12-02T03:20:00Z
2021-12-02T01:21:36Z,42.805,6.029,13.3008,4.60049,2470.18,2021-12-02T03:23:04Z
2021-12-02T01:24:39Z,42.805,6.029,13.3001,4.60047,2470.18,2021-12-02T03:26:07Z
2021-12-02T01:27:42Z,42.805,6.029,13.3004,4.60032,2470.194,2021-12-02T03:29:10Z
2021-12-02T01:30:46Z,42.805,6.029,13.3009,4.60049,2470.203,2021-12-02T03:32:13Z
2021-12-02T01:33:49Z,42.805,6.029,13.3004,4.60036,2470.18,2021-12-02T03:35:16Z
2021-12-02T01:36:52Z,42.805,6.029,13.3004,4.60031,2470.18,2021-12-02T03:38:19Z
2021-12-02T01:39:55Z,42.805,6.029,13.3005,4.60063,2470.203,2021-12-02T03:41:22Z
2021-12-02T01:42:58Z,42.805,6.029,13.3009,4.60057,2470.194,2021-12-02T03:44:25Z
2021-12-02T01:46:01Z,42.805,6.029,13.3002,4.60041,2470.203,2021-12-02T03:47:29Z
2021-12-02T01:49:04Z,42.805,6.029,13.3009,4.60045,2470.203,2021-12-02T03:50:32Z
2021-12-02T01:52:07Z,42.805,6.029,13.3006,4.60032,2470.217,2021-12-02T03:53:35Z
2021-12-02T01:55:11Z,42.805,6.029,13.3001,4.60033,2470.18,2021-12-02T03:56:38Z
2021-12-02T01:58:14Z,42.805,6.029,13.3000,4.60031,2470.203,2021-12-02T03:59:41Z
2021-12-02T02:01:17Z,42.805,6.029,13.3015,4.60060,2470.194,2021-12-02T04:02:44Z
2021-12-02T02:04:20Z,42.805,6.029,13.3006,4.60038,2470.24,2021-12-02T04:05:47Z
2021-12-02T02:07:23Z,42.805,6.029,13.3005,4.60029,2470.227,2021-12-02T04:08:50Z
2021-12-02T02:10:26Z,42.805,6.029,13.3006,4.60060,2470.227,2021-12-02T04:11:54Z
2021-12-02T02:13:29Z,42.805,6.029,13.3004,4.60054,2470.217,2021-12-02T04:14:57Z
2021-12-02T02:16:32Z,42.805,6.029,13.3005,4.60057,2470.217,2021-12-02T04:18:00Z
2021-12-02T02:19:36Z,42.805,6.029,13.3006,4.60057,2470.203,2021-12-02T04:21:03Z
2021-12-02T02:22:39Z,42.805,6.029,13.3011,4.60047,2470.203,2021-12-02T04:24:06Z
2021-12-02T02:25:42Z,42.805,6.029,13.3001,4.60029,2470.194,2021-12-02T04:27:09Z
2021-12-02T02:28:45Z,42.805,6.029,13.3002,4.60033,2470.227,2021-12-02T04:30:12Z
2021-12-02T02:31:48Z,42.805,6.029,13.2998,4.60037,2470.227,2021-12-02T04:33:15Z
2021-12-02T02:34:51Z,42.805,6.029,13.3013,4.60045,2470.227,2021-12-02T04:36:18Z
2021-12-02T02:37:54Z,42.805,6.029,13.3000,4.60041,2470.227,2021-12-02T04:39:22Z
2021-12-02T02:40:57Z,42.805,6.029,13.2998,4.60033,2470.273,2021-12-02T04:42:25Z
2021-12-02T02:44:00Z,42.805,6.029,13.3006,4.60042,2470.227,2021-12-02T04:45:28Z
2021-12-02T02:47:04Z,42.805,6.029,13.3005,4.60031,2470.273,2021-12-02T04:48:31Z
2021-12-02T02:50:07Z,42.805,6.029,13.3000,4.60043,2470.25,2021-12-02T04:51:34Z
2021-12-02T02:53:10Z,42.805,6.029,13.3010,4.60053,2470.25,2021-12-02T04:54:37Z
2021-12-02T02:56:13Z,42.805,6.029,13.3009,4.60049,2470.25,2021-12-02T04:57:40Z
2021-12-02T02:59:16Z,42.805,6.029,13.3003,4.60049,2470.25,2021-12-02T05:00:43Z
2021-12-02T03:02:19Z,42.805,6.029,13.3004,4.60033,2470.25,2021-12-02T05:03:47Z
2021-12-02T03:05:22Z,42.805,6.029,13.3014,4.60046,2470.264,2021-12-02T05:06:50Z
2021-12-02T03:08:25Z,42.805,6.029,13.3010,4.60046,2470.227,2021-12-02T05:09:53Z
2021-12-02T03:11:29Z,42.805,6.029,13.3000,4.60042,2470.264,2021-12-02T05:12:56Z
2021-12-02T03:14:32Z,42.805,6.029,13.3008,4.60041,2470.227,2021-12-02T05:15:59Z
2021-12-02T03:17:35Z,42.805,6.029,13.3000,4.60047,2470.25,2021-12-02T05:19:02Z
2021-12-02T03:20:38Z,42.805,6.029,13.3005,4.60031,2470.25,2021-12-02T05:22:05Z
2021-12-02T03:23:41Z,42.805,6.029,13.2997,4.60025,2470.25,2021-12-02T05:25:08Z
2021-12-02T03:26:44Z,42.805,6.029,13.3008,4.60048,2470.273,2021-12-02T05:28:11Z
2021-12-02T03:29:47Z,42.805,6.029,13.3005,4.60049,2470.273,2021-12-02T05:31:15Z
2021-12-02T03:32:50Z,42.805,6.029,13.3013,4.60060,2470.297,2021-12-02T05:34:18Z
2021-12-02T03:35:54Z,42.805,6.029,13.3004,4.60044,2470.297,2021-12-02T05:37:21Z
2021-12-02T03:38:57Z,42.805,6.029,13.3010,4.60048,2470.31,2021-12-02T05:40:24Z
2021-12-02T03:42:00Z,42.805,6.029,13.3004,4.60057,2470.287,2021-12-02T05:43:27Z
2021-12-02T03:45:03Z,42.805,6.029,13.3001,4.60036,2470.273,2021-12-02T05:46:30Z
2021-12-02T03:48:06Z,42.805,6.029,13.2998,4.60046,2470.297,2021-12-02T05:49:33Z
2021-12-02T03:51:09Z,42.805,6.029,13.2999,4.60024,2470.297,2021-12-02T05:52:36Z
2021-12-02T03:54:12Z,42.805,6.029,13.3005,4.60057,2470.297,2021-12-02T05:55:40Z
2021-12-02T03:57:15Z,42.805,6.029,13.2998,4.60035,2470.334,2021-12-02T05:58:43Z
2021-12-02T04:00:18Z,42.805,6.029,13.3009,4.60052,2470.31,2021-12-02T06:01:46Z
2021-12-02T04:03:22Z,42.805,6.029,13.3004,4.60046,2470.297,2021-12-02T06:04:49Z
2021-12-02T04:06:25Z,42.805,6.029,13.3006,4.60036,2470.31,2021-12-02T06:07:52Z
2021-12-02T04:09:28Z,42.805,6.029,13.2993,4.60033,2470.297,2021-12-02T06:10:55Z
2021-12-02T04:12:31Z,42.805,6.029,13.3006,4.60049,2470.32,2021-12-02T06:13:58Z
2021-12-02T04:15:34Z,42.805,6.029,13.2998,4.60039,2470.32,2021-12-02T06:17:01Z
2021-12-02T04:18:37Z,42.805,6.029,13.3000,4.60043,2470.31,2021-12-02T06:20:05Z
2021-12-02T04:21:40Z,42.805,6.029,13.2999,4.60033,2470.297,2021-12-02T06:23:08Z
2021-12-02T04:24:43Z,42.805,6.029,13.3000,4.60041,2470.273,2021-12-02T06:26:11Z
2021-12-02T04:27:46Z,42.805,6.029,13.3000,4.60032,2470.343,2021-12-02T06:29:14Z
2021-12-02T04:30:50Z,42.805,6.029,13.2996,4.60033,2470.297,2021-12-02T06:32:17Z
2021-12-02T04:33:53Z,42.805,6.029,13.3000,4.60035,2470.334,2021-12-02T06:35:20Z
2021-12-02T04:36:56Z,42.805,6.029,13.2998,4.60031,2470.297,2021-12-02T06:38:23Z
2021-12-02T04:39:59Z,42.805,6.029,13.2999,4.60032,2470.32,2021-12-02T06:41:26Z
2021-12-02T04:43:02Z,42.805,6.029,13.3004,4.60036,2470.334,2021-12-02T06:44:29Z
2021-12-02T04:46:05Z,42.805,6.029,13.3004,4.60049,2470.297,2021-12-02T06:47:33Z
2021-12-02T04:49:08Z,42.805,6.029,13.3001,4.60040,2470.32,2021-12-02T06:50:36Z
2021-12-02T04:52:11Z,42.805,6.029,13.2996,4.60043,2470.297,2021-12-02T06:53:39Z
2021-12-02T04:55:15Z,42.805,6.029,13.3000,4.60029,2470.343,2021-12-02T06:56:42Z
2021-12-02T04:58:18Z,42.805,6.029,13.2995,4.60027,2470.32,2021-12-02T06:59:45Z
2021-12-02T05:01:21Z,42.805,6.029,13.3004,4.60029,2470.31,2021-12-02T07:02:48Z
2021-12-02T05:04:24Z,42.805,6.029,13.2994,4.60024,2470.366,2021-12-02T07:05:51Z
2021-12-02T05:07:27Z,42.805,6.029,13.2996,4.60026,2470.32,2021-12-02T07:08:54Z
2021-12-02T05:10:30Z,42.805,6.029,13.3004,4.60026,2470.297,2021-12-02T07:11:58Z
2021-12-02T05:13:33Z,42.805,6.029,13.2998,4.60024,2470.38,2021-12-02T07:15:01Z
2021-12-02T05:16:36Z,42.805,6.029,13.2993,4.60037,2470.31,2021-12-02T07:18:04Z
2021-12-02T05:19:39Z,42.805,6.029,13.2996,4.60042,2470.32,2021-12-02T07:21:07Z
2021-12-02T05:22:43Z,42.805,6.029,13.2999,4.60035,2470.334,2021-12-02T07:24:10Z
2021-12-02T05:25:46Z,42.805,6.029,13.3007,4.60038,2470.334,2021-12-02T07:27:13Z
2021-12-02T05:28:49Z,42.805,6.029,13.2999,4.60067,2470.32,2021-12-02T07:30:16Z
2021-12-02T05:31:52Z,42.805,6.029,13.3003,4.60040,2470.343,2021-12-02T07:33:19Z
2021-12-02T05:34:55Z,42.805,6.029,13.3001,4.60033,2470.31,2021-12-02T07:36:23Z
2021-12-02T05:37:58Z,42.805,6.029,13.2996,4.60026,2470.297,2021-12-02T07:39:26Z
2021-12-02T05:41:01Z,42.805,6.029,13.3001,4.60037,2470.297,2021-12-02T07:42:29Z
2021-12-02T05:44:04Z,42.805,6.029,13.2998,4.60031,2470.297,2021-12-02T07:45:32Z
2021-12-02T05:47:08Z,42.805,6.029,13.3007,4.60029,2470.334,2021-12-02T07:48:35Z
2021-12-02T05:50:11Z,42.805,6.029,13.3000,4.60032,2470.32,2021-12-02T07:51:38Z
2021-12-02T05:53:14Z,42.805,6.029,13.2996,4.60029,2470.31,2021-12-02T07:54:41Z
2021-12-02T05:56:17Z,42.805,6.029,13.2996,4.60034,2470.32,2021-12-02T07:57:44Z
2021-12-02T05:59:20Z,42.805,6.029,13.3005,4.60031,2470.343,2021-12-02T08:00:47Z
2021-12-02T06:02:23Z,42.805,6.029,13.3000,4.60034,2470.32,2021-12-02T08:03:51Z
2021-12-02T06:05:26Z,42.805,6.029,13.3000,4.60029,2470.32,2021-12-02T08:06:54Z
2021-12-02T06:08:29Z,42.805,6.029,13.2996,4.60035,2470.32,2021-12-02T08:09:57Z
2021-12-02T06:11:33Z,42.805,6.029,13.3000,4.60039,2470.287,2021-12-02T08:13:00Z
2021-12-02T06:14:36Z,42.805,6.029,13.3000,4.60039,2470.297,2021-12-02T08:16:03Z
2021-12-02T06:17:39Z,42.805,6.029,13.2999,4.60033,2470.357,2021-12-02T08:19:06Z
2021-12-02T06:20:42Z,42.805,6.029,13.3014,4.60044,2470.297,2021-12-02T08:22:09Z
2021-12-02T06:23:45Z,42.805,6.029,13.3002,4.60033,2470.283,2021-12-02T08:25:12Z
2021-12-02T06:26:48Z,42.805,6.029,13.3006,4.60044,2470.297,2021-12-02T08:28:16Z
2021-12-02T06:29:51Z,42.805,6.029,13.3003,4.60032,2470.31,2021-12-02T08:31:19Z
2021-12-02T06:32:54Z,42.805,6.029,13.3000,4.60039,2470.297,2021-12-02T08:34:22Z
2021-12-02T06:35:57Z,42.805,6.029,13.3005,4.60036,2470.334,2021-12-02T08:37:25Z
2021-12-02T06:39:01Z,42.805,6.029,13.3007,4.60054,2470.297,2021-12-02T08:40:28Z
2021-12-02T06:42:04Z,42.805,6.029,13.3000,4.60040,2470.297,2021-12-02T08:43:31Z
2021-12-02T06:45:07Z,42.805,6.029,13.3001,4.60037,2470.297,2021-12-02T08:46:34Z
2021-12-02T06:48:10Z,42.805,6.029,13.3006,4.60035,2470.306,2021-12-02T08:49:37Z
2021-12-02T06:51:13Z,42.805,6.029,13.2996,4.60037,2470.32,2021-12-02T08:52:40Z
2021-12-02T06:54:16Z,42.805,6.029,13.2999,4.60044,2470.31,2021-12-02T08:55:44Z
2021-12-02T06:57:19Z,42.805,6.029,13.2998,4.60037,2470.343,2021-12-02T08:58:47Z
2021-12-02T07:00:22Z,42.805,6.029,13.3001,4.60029,2470.31,2021-12-02T09:01:50Z
2021-12-02T07:03:26Z,42.805,6.029,13.3006,4.60028,2470.31,2021-12-02T09:04:53Z
2021-12-02T07:06:29Z,42.805,6.029,13.3000,4.60036,2470.32,2021-12-02T09:07:56Z
2021-12-02T07:09:32Z,42.805,6.029,13.3003,4.60028,2470.32,2021-12-02T09:10:59Z
2021-12-02T07:12:35Z,42.805,6.029,13.3003,4.60031,2470.343,2021-12-02T09:14:02Z
2021-12-02T07:15:38Z,42.805,6.029,13.2999,4.60036,2470.334,2021-12-02T09:17:05Z
2021-12-02T07:18:41Z,42.805,6.029,13.3003,4.60042,2470.32,2021-12-02T09:20:08Z
2021-12-02T07:21:44Z,42.805,6.029,13.3002,4.60037,2470.334,2021-12-02T09:23:12Z
2021-12-02T07:24:47Z,42.805,6.029,13.3005,4.60034,2470.31,2021-12-02T09:26:15Z
2021-12-02T07:27:50Z,42.805,6.029,13.3002,4.60028,2470.31,2021-12-02T09:29:18Z
2021-12-02T07:30:54Z,42.805,6.029,13.3004,4.60034,2470.334,2021-12-02T09:32:21Z
2021-12-02T07:33:57Z,42.805,6.029,13.2998,4.60026,2470.31,2021-12-02T09:35:24Z
2021-12-02T07:37:00Z,42.805,6.029,13.3001,4.60028,2470.31,2021-12-02T09:38:27Z
2021-12-02T07:40:03Z,42.805,6.029,13.2998,4.60027,2470.273,2021-12-02T09:41:30Z
2021-12-02T07:43:06Z,42.805,6.029,13.2998,4.60048,2470.32,2021-12-02T09:44:33Z
2021-12-02T07:46:09Z,42.805,6.029,13.3000,4.60030,2470.297,2021-12-02T09:47:37Z
2021-12-02T07:49:12Z,42.805,6.029,13.2998,4.60026,2470.287,2021-12-02T09:50:40Z
2021-12-02T07:52:15Z,42.805,6.029,13.3004,4.60036,2470.25,2021-12-02T09:53:43Z
2021-12-02T07:55:19Z,42.805,6.029,13.3006,4.60046,2470.297,2021-12-02T09:56:46Z
2021-12-02T07:58:22Z,42.805,6.029,13.2998,4.60031,2470.25,2021-12-02T09:59:49Z
2021-12-02T08:01:25Z,42.805,6.029,13.3002,4.60027,2470.273,2021-12-02T10:02:52Z
2021-12-02T08:04:28Z,42.805,6.029,13.2998,4.60029,2470.25,2021-12-02T10:05:55Z
2021-12-02T08:07:31Z,42.805,6.029,13.2997,4.60033,2470.273,2021-12-02T10:08:58Z
2021-12-02T08:10:34Z,42.805,6.029,13.3006,4.60033,2470.273,2021-12-02T10:12:02Z
2021-12-02T08:13:37Z,42.805,6.029,13.2999,4.60029,2470.25,2021-12-02T10:15:05Z
2021-12-02T08:16:40Z,42.805,6.029,13.2998,4.60030,2470.287,2021-12-02T10:18:08Z
2021-12-02T08:19:44Z,42.805,6.029,13.3004,4.60041,2470.287,2021-12-02T10:21:11Z
2021-12-02T08:22:47Z,42.805,6.029,13.2997,4.60037,2470.31,2021-12-02T10:24:14Z
2021-12-02T08:25:50Z,42.805,6.029,13.3004,4.60039,2470.287,2021-12-02T10:27:17Z
2021-12-02T08:28:53Z,42.805,6.029,13.3001,4.60032,2470.273,2021-12-02T10:30:20Z
2021-12-02T08:31:56Z,42.805,6.029,13.3000,4.60033,2470.297,2021-12-02T10:33:23Z
2021-12-02T08:34:59Z,42.805,6.029,13.2998,4.60031,2470.287,2021-12-02T10:36:27Z
2021-12-02T08:38:02Z,42.805,6.029,13.3002,4.60026,2470.227,2021-12-02T10:39:30Z
2021-12-02T08:41:05Z,42.805,6.029,13.3003,4.60032,2470.264,2021-12-02T10:42:33Z
2021-12-02T08:44:09Z,42.805,6.029,13.3004,4.60039,2470.227,2021-12-02T10:45:36Z
2021-12-02T08:47:12Z,42.805,6.029,13.3004,4.60036,2470.287,2021-12-02T10:48:39Z
2021-12-02T08:50:15Z,42.805,6.029,13.3000,4.60031,2470.227,2021-12-02T10:51:42Z
2021-12-02T08:53:18Z,42.805,6.029,13.2999,4.60046,2470.227,2021-12-02T10:54:45Z
2021-12-02T08:56:21Z,42.805,6.029,13.2997,4.60027,2470.25,2021-12-02T10:57:48Z
2021-12-02T08:59:24Z,42.805,6.029,13.3002,4.60033,2470.25,2021-12-02T11:00:52Z
2021-12-02T09:02:27Z,42.805,6.029,13.2995,4.60026,2470.227,2021-12-02T11:03:55Z
2021-12-02T09:05:30Z,42.805,6.029,13.2999,4.60026,2470.227,2021-12-02T11:06:58Z
2021-12-02T09:08:33Z,42.805,6.029,13.3006,4.60030,2470.203,2021-12-02T11:10:01Z
2021-12-02T09:11:37Z,42.805,6.029,13.3001,4.60030,2470.25,2021-12-02T11:13:04Z
2021-12-02T09:14:40Z,42.805,6.029,13.3007,4.60031,2470.217,2021-12-02T11:16:07Z
2021-12-02T09:17:43Z,42.805,6.029,13.3003,4.60037,2470.25,2021-12-02T11:19:10Z
2021-12-02T09:20:46Z,42.805,6.029,13.2999,4.60025,2470.227,2021-12-02T11:22:13Z
2021-12-02T09:23:49Z,42.805,6.029,13.2998,4.60026,2470.203,2021-12-02T11:25:16Z
2021-12-02T09:26:52Z,42.805,6.029,13.3000,4.60033,2470.217,2021-12-02T11:28:20Z
2021-12-02T09:29:55Z,42.805,6.029,13.3001,4.60030,2470.203,2021-12-02T11:31:23Z
2021-12-02T09:32:58Z,42.805,6.029,13.3003,4.60035,2470.203,2021-12-02T11:34:26Z
2021-12-02T09:36:02Z,42.805,6.029,13.2998,4.60030,2470.189,2021-12-02T11:37:29Z
2021-12-02T09:39:05Z,42.805,6.029,13.3000,4.60039,2470.227,2021-12-02T11:40:32Z
2021-12-02T09:42:08Z,42.805,6.029,13.3008,4.60034,2470.203,2021-12-02T11:43:35Z
2021-12-02T09:45:11Z,42.805,6.029,13.3000,4.60029,2470.189,2021-12-02T11:46:38Z
2021-12-02T09:48:14Z,42.805,6.029,13.2996,4.60031,2470.227,2021-12-02T11:49:41Z
2021-12-02T09:51:17Z,42.805,6.029,13.2996,4.60029,2470.25,2021-12-02T11:52:45Z
2021-12-02T09:54:20Z,42.805,6.029,13.3000,4.60036,2470.217,2021-12-02T11:55:48Z
2021-12-02T09:57:23Z,42.805,6.029,13.3008,4.60055,2470.203,2021-12-02T11:58:51Z
2021-12-02T10:00:27Z,42.805,6.029,13.3000,4.60048,2470.203,2021-12-02T12:01:54Z
2021-12-02T10:03:30Z,42.805,6.029,13.3003,4.60031,2470.203,2021-12-02T12:04:57Z
2021-12-02T10:06:33Z,42.805,6.029,13.2999,4.60026,2470.194,2021-12-02T12:08:00Z
2021-12-02T10:09:36Z,42.805,6.029,13.3003,4.60029,2470.18,2021-12-02T12:11:03Z
2021-12-02T10:12:39Z,42.805,6.029,13.3003,4.60027,2470.203,2021-12-02T12:14:06Z
2021-12-02T10:15:42Z,42.805,6.029,13.2996,4.60027,2470.217,2021-12-02T12:17:10Z
2021-12-02T10:18:45Z,42.805,6.029,13.3000,4.60031,2470.18,2021-12-02T12:20:13Z
2021-12-02T10:21:48Z,42.805,6.029,13.2998,4.60026,2470.18,2021-12-02T12:23:16Z
2021-12-02T10:24:52Z,42.805,6.029,13.3004,4.60035,2470.18,2021-12-02T12:26:19Z
2021-12-02T10:27:55Z,42.805,6.029,13.2993,4.60033,2470.203,2021-12-02T12:29:22Z
2021-12-02T10:30:58Z,42.805,6.029,13.3009,4.60032,2470.156,2021-12-02T12:32:25Z
2021-12-02T10:34:01Z,42.805,6.029,13.2998,4.60027,2470.171,2021-12-02T12:35:28Z
2021-12-02T10:37:04Z,42.805,6.029,13.3005,4.60033,2470.194,2021-12-02T12:38:31Z
2021-12-02T10:40:07Z,42.805,6.029,13.2997,4.60027,2470.133,2021-12-02T12:41:35Z
2021-12-02T10:43:10Z,42.805,6.029,13.2999,4.60037,2470.18,2021-12-02T12:44:38Z
2021-12-02T10:46:13Z,42.805,6.029,13.3004,4.60026,2470.217,2021-12-02T12:47:41Z
2021-12-02T10:49:17Z,42.805,6.029,13.3000,4.60033,2470.18,2021-12-02T12:50:44Z
2021-12-02T10:52:20Z,42.805,6.029,13.3000,4.60031,2470.217,2021-12-02T12:53:47Z
2021-12-02T10:55:23Z,42.805,6.029,13.3002,4.60034,2470.18,2021-12-02T12:56:50Z
2021-12-02T10:58:26Z,42.805,6.029,13.3000,4.60039,2470.18,2021-12-02T12:59:53Z
2021-12-02T11:01:29Z,42.805,6.029,13.2998,4.60036,2470.18,2021-12-02T13:02:56Z
2021-12-02T11:04:32Z,42.805,6.029,13.3002,4.60034,2470.203,2021-12-02T13:06:00Z
2021-12-02T11:07:35Z,42.805,6.029,13.2998,4.60029,2470.156,2021-12-02T13:09:03Z
2021-12-02T11:10:38Z,42.805,6.029,13.2997,4.60031,2470.18,2021-12-02T13:12:06Z
2021-12-02T11:13:42Z,42.805,6.029,13.3005,4.60042,2470.166,2021-12-02T13:15:09Z
2021-12-02T11:16:45Z,42.805,6.029,13.3002,4.60036,2470.194,2021-12-02T13:18:12Z
2021-12-02T11:19:48Z,42.805,6.029,13.3000,4.60036,2470.156,2021-12-02T13:21:15Z
2021-12-02T11:22:51Z,42.805,6.029,13.3002,4.60027,2470.194,2021-12-02T13:24:18Z
2021-12-02T11:25:54Z,42.805,6.029,13.3000,4.60039,2470.156,2021-12-02T13:27:21Z
2021-12-02T11:28:57Z,42.805,6.029,13.3006,4.60038,2470.217,2021-12-02T13:30:25Z
2021-12-02T11:32:00Z,42.805,6.029,13.3003,4.60035,2470.18,2021-12-02T13:33:28Z
2021-12-02T11:35:03Z,42.805,6.029,13.3003,4.60037,2470.194,2021-12-02T13:36:31Z
2021-12-02T11:38:07Z,42.805,6.029,13.2998,4.60033,2470.18,2021-12-02T13:39:34Z
2021-12-02T11:41:10Z,42.805,6.029,13.2998,4.60027,2470.18,2021-12-02T13:42:37Z
2021-12-02T11:44:13Z,42.805,6.029,13.3003,4.60042,2470.133,2021-12-02T13:45:40Z
2021-12-02T11:47:16Z,42.805,6.029,13.3000,4.60035,2470.156,2021-12-02T13:48:43Z
2021-12-02T11:50:19Z,42.805,6.029,13.3005,4.60039,2470.133,2021-12-02T13:51:46Z
2021-12-02T11:53:22Z,42.805,6.029,13.3006,4.60027,2470.133,2021-12-02T13:54:50Z
2021-12-02T11:56:25Z,42.805,6.029,13.3002,4.60038,2470.156,2021-12-02T13:57:53Z
2021-12-02T11:59:28Z,42.805,6.029,13.3006,4.60033,2470.18,2021-12-02T14:00:56Z
2021-12-02T12:02:32Z,42.805,6.029,13.3002,4.60036,2470.24,2021-12-02T14:03:59Z
2021-12-02T12:05:35Z,42.805,6.029,13.2998,4.60037,2470.156,2021-12-02T14:07:02Z
2021-12-02T12:08:38Z,42.805,6.029,13.3001,4.60033,2470.171,2021-12-02T14:10:05Z
2021-12-02T12:11:41Z,42.805,6.029,13.2998,4.60029,2470.171,2021-12-02T14:13:08Z
2021-12-02T12:14:44Z,42.805,6.029,13.3000,4.60033,2470.156,2021-12-02T14:16:11Z
2021-12-02T12:17:47Z,42.805,6.029,13.3000,4.60042,2470.133,2021-12-02T14:19:15Z
2021-12-02T12:20:50Z,42.805,6.029,13.2993,4.60023,2470.156,2021-12-02T14:22:18Z
2021-12-02T12:23:53Z,42.805,6.029,13.2997,4.60031,2470.18,2021-12-02T14:25:21Z
2021-12-02T12:26:57Z,42.805,6.029,13.2998,4.60024,2470.171,2021-12-02T14:28:24Z
2021-12-02T12:30:00Z,42.805,6.029,13.3001,4.60036,2470.217,2021-12-02T14:31:27Z
2021-12-02T12:33:03Z,42.805,6.029,13.2996,4.60036,2470.18,2021-12-02T14:34:30Z
2021-12-02T12:36:06Z,42.805,6.029,13.2995,4.60021,2470.147,2021-12-02T14:37:33Z
2021-12-02T12:39:09Z,42.805,6.029,13.2996,4.60023,2470.203,2021-12-02T14:40:36Z
2021-12-02T12:42:12Z,42.805,6.029,13.3004,4.60037,2470.133,2021-12-02T14:43:40Z
2021-12-02T12:45:15Z,42.805,6.029,13.3005,4.60033,2470.194,2021-12-02T14:46:43Z
2021-12-02T12:48:18Z,42.805,6.029,13.2995,4.60042,2470.217,2021-12-02T14:49:46Z
2021-12-02T12:51:22Z,42.805,6.029,13.3004,4.60028,2470.156,2021-12-02T14:52:49Z
2021-12-02T12:54:25Z,42.805,6.029,13.2998,4.60023,2470.156,2021-12-02T14:55:52Z
2021-12-02T12:57:28Z,42.805,6.029,13.3001,4.60025,2470.171,2021-12-02T14:58:55Z
2021-12-02T13:00:31Z,42.805,6.029,13.3001,4.60029,2470.133,2021-12-02T15:01:58Z
2021-12-02T13:03:34Z,42.805,6.029,13.3000,4.60039,2470.156,2021-12-02T15:05:01Z
2021-12-02T13:06:37Z,42.805,6.029,13.2999,4.60034,2470.156,2021-12-02T15:08:05Z
2021-12-02T13:09:40Z,42.805,6.029,13.2996,4.60029,2470.147,2021-12-02T15:11:08Z
2021-12-02T13:12:43Z,42.805,6.029,13.3000,4.60039,2470.133,2021-12-02T15:14:11Z
2021-12-02T13:15:47Z,42.805,6.029,13.3000,4.60026,2470.147,2021-12-02T15:17:14Z
2021-12-02T13:18:50Z,42.805,6.029,13.3000,4.60037,2470.194,2021-12-02T15:20:17Z
2021-12-02T13:21:53Z,42.805,6.029,13.2996,4.60025,2470.18,2021-12-02T15:23:20Z
2021-12-02T13:24:56Z,42.805,6.029,13.3004,4.60025,2470.156,2021-12-02T15:26:23Z
2021-12-02T13:27:59Z,42.805,6.029,13.3005,4.60039,2470.217,2021-12-02T15:29:26Z
2021-12-02T13:31:02Z,42.805,6.029,13.2998,4.60042,2470.156,2021-12-02T15:32:30Z
2021-12-02T13:34:05Z,42.805,6.029,13.2998,4.60033,2470.18,2021-12-02T15:35:33Z
2021-12-02T13:37:08Z,42.805,6.029,13.3001,4.60043,2470.18,2021-12-02T15:38:36Z
2021-12-02T13:40:12Z,42.805,6.029,13.2996,4.60022,2470.194,2021-12-02T15:41:39Z
2021-12-02T13:43:15Z,42.805,6.029,13.3000,4.60029,2470.203,2021-12-02T15:44:42Z
2021-12-02T13:46:18Z,42.805,6.029,13.2999,4.60036,2470.156,2021-12-02T15:47:45Z
2021-12-02T13:49:21Z,42.805,6.029,13.2998,4.60026,2470.18,2021-12-02T15:50:48Z
2021-12-02T13:52:24Z,42.805,6.029,13.2993,4.60026,2470.24,2021-12-02T15:53:51Z
2021-12-02T13:55:27Z,42.805,6.029,13.3006,4.60036,2470.217,2021-12-02T15:56:55Z
2021-12-02T13:58:30Z,42.805,6.029,13.2997,4.60025,2470.203,2021-12-02T15:59:58Z
2021-12-02T14:01:33Z,42.805,6.029,13.2998,4.60026,2470.203,2021-12-02T16:03:01Z
2021-12-02T14:04:37Z,42.805,6.029,13.3005,4.60029,2470.217,2021-12-02T16:06:04Z
2021-12-02T14:07:40Z,42.805,6.029,13.2998,4.60022,2470.18,2021-12-02T16:09:07Z
2021-12-02T14:10:43Z,42.805,6.029,13.2998,4.60050,2470.25,2021-12-02T16:12:10Z
2021-12-02T14:13:46Z,42.805,6.029,13.3005,4.60036,2470.203,2021-12-02T16:15:13Z
2021-12-02T14:16:49Z,42.805,6.029,13.2995,4.60025,2470.227,2021-12-02T16:18:16Z
2021-12-02T14:19:52Z,42.805,6.029,13.2997,4.60041,2470.227,2021-12-02T16:21:20Z
2021-12-02T14:22:55Z,42.805,6.029,13.3001,4.60029,2470.25,2021-12-02T16:24:23Z
2021-12-02T14:25:58Z,42.805,6.029,13.3006,4.60045,2470.273,2021-12-02T16:27:26Z
2021-12-02T14:29:01Z,42.805,6.029,13.2996,4.60024,2470.25,2021-12-02T16:30:29Z
2021-12-02T14:32:05Z,42.805,6.029,13.3001,4.60037,2470.25,2021-12-02T16:33:32Z
2021-12-02T14:35:08Z,42.805,6.029,13.2993,4.60023,2470.287,2021-12-02T16:36:35Z
2021-12-02T14:38:11Z,42.805,6.029,13.2996,4.60029,2470.25,2021-12-02T16:39:38Z
2021-12-02T14:41:14Z,42.805,6.029,13.3002,4.60029,2470.227,2021-12-02T16:42:41Z
2021-12-02T14:44:17Z,42.805,6.029,13.3000,4.60029,2470.25,2021-12-02T16:45:45Z
2021-12-02T14:47:20Z,42.805,6.029,13.3003,4.60036,2470.227,2021-12-02T16:48:48Z
2021-12-02T14:50:23Z,42.805,6.029,13.2997,4.60025,2470.264,2021-12-02T16:51:51Z
2021-12-02T14:53:27Z,42.805,6.029,13.2998,4.60025,2470.287,2021-12-02T16:54:54Z
2021-12-02T14:56:30Z,42.805,6.029,13.3006,4.60033,2470.273,2021-12-02T16:57:57Z
2021-12-02T14:59:33Z,42.805,6.029,13.2998,4.60024,2470.227,2021-12-02T17:01:00Z
2021-12-02T15:02:36Z,42.805,6.029,13.2999,4.60027,2470.31,2021-12-02T17:04:03Z